Stations météo

Publicité
Agen, France (7524): Température de l'air & dewpoint: 20.03.2017 09:00:00 - 26.03.2017 09:00:00 (CEST)Agen, France (7524): Température de l'air 5cm: 20.03.2017 09:00:00 - 26.03.2017 09:00:00 (CEST)Agen, France (7524): Température de l'air -20cm & Température de l'air -100cm: 20.03.2017 09:00:00 - 26.03.2017 09:00:00 (CEST)Agen, France (7524): Vitesse du vent & gusts: 20.03.2017 09:00:00 - 26.03.2017 09:00:00 (CEST)Agen, France (7524): Direction du vent: 20.03.2017 09:00:00 - 26.03.2017 09:00:00 (CEST)Agen, France (7524): reduced air pressure: 20.03.2017 09:00:00 - 26.03.2017 09:00:00 (CEST)Agen, France (7524): visibility: 20.03.2017 09:00:00 - 26.03.2017 09:00:00 (CEST)Agen, France (7524): Ensoleillement: 20.03.2017 09:00:00 - 26.03.2017 09:00:00 (CEST)Agen, France (7524): Quantités de précipitations: 20.03.2017 09:00:00 - 26.03.2017 09:00:00 (CEST)
Date & Time tt [°C] td [°C] tt 5cm [°C] tt -20cm [°C] tt -100cm [°C] ff [km/h] ff [knt] fx [km/h] fx [knt] dd ppp [hPa] vv [km] sd [min] rr [mm]
26.03.2017 09:00:00 6,5 4,5 1,9 10,2 10,9 13 7 18 10 E 1017,2 42 58 0,0
26.03.2017 08:00:00 4,4 3,4 -0,2 10,3 10,9 11 6 19 10 ESE 1016,6 20 0 0,0
26.03.2017 07:00:00 3,9 2,7 -0,2 10,3 10,9 11 6 15 8 ESE 1016,2 30 0 0,0
26.03.2017 06:00:00 5,3 3,8 1,0 10,4 10,9 12 7 16 9 ESE 1016,1 32 0 0,0
26.03.2017 05:00:00 5,5 4,0 1,9 10,4 10,9 10 5 16 8 ESE 1016,0 35 0 0,0
26.03.2017 04:00:00 6,2 4,4 1,7 10,5 10,9 12 6 20 11 ESE 1016,1 41 0 0,0
26.03.2017 03:00:00 7,2 4,8 1,2 10,5 10,9 13 7 20 11 SE 1016,0 42 0 0,0
26.03.2017 02:00:00 5,5 4,3 0,1 10,5 10,9 10 5 15 8 ESE 1015,7 26 0 0,0
26.03.2017 01:00:00 5,4 4,5 -0,2 10,6 10,9 9 5 11 6 SE 1015,8 30 0 0,0
26.03.2017 00:00:00 5,4 3,7 -0,1 10,6 10,9 4 2 6 3 SSE 1015,8 20 0 0,0
25.03.2017 23:00:00 6,9 4,7 1,2 10,5 10,9 3 2 7 4 SSW 1015,2 60 0 0,0
25.03.2017 22:00:00 8,2 5,0 2,3 10,5 10,9 3 2 9 5 SW 1014,0 60 0 0,0
25.03.2017 21:00:00 10,3 5,9 4,4 10,5 10,9 2 1 10 6 WSW 1013,4 60 7 0,0
25.03.2017 20:00:00 12,6 5,3 11,9 10,4 10,9 7 4 9 5 NW 1012,3 60 60 0,0
25.03.2017 19:00:00 14,3 4,8 15,2 10,4 10,9 6 3 26 14 SSW 1011,3 59 50 0,0
25.03.2017 18:00:00 13,9 6,0 17,8 10,4 10,9 17 9 33 18 SSW 1011,2 60 60 0,0
25.03.2017 17:00:00 13,0 6,6 9,7 10,4 10,9 21 11 38 20 SSE 1010,7 60 20 0,0
25.03.2017 16:00:00 10,7 7,2 9,8 10,3 10,9 24 13 41 22 ESE 1010,4 59 0 0,0
25.03.2017 15:00:00 10,5 7,7 10,6 10,3 10,9 25 13 47 25 ESE 1010,1 18 0 1,6
25.03.2017 14:00:00 14,7 8,2 14,2 10,3 10,9 18 10 38 21 E 1008,6 55 0 0,0
25.03.2017 13:00:00 14,1 7,6 14,4 10,3 10,9 24 13 45 24 E 1009,0 60 13 0,0
25.03.2017 12:00:00 12,4 9,0 11,2 10,3 10,9 15 8 23 12 E 1009,6 57 0 0,0
25.03.2017 11:00:00 9,3 7,6 9,2 10,3 10,9 4 2 14 8 NE 1010,7 19 0 0,6
25.03.2017 10:00:00 9,6 7,2 8,2 10,3 10,9 5 3 13 7 SSE 1010,3 39 0 0,2
25.03.2017 09:00:00 8,2 6,7 5,3 10,4 10,9 3 2 16 9 S 1010,5 44 0 0,0
25.03.2017 08:00:00 6,8 5,9 3,8 10,4 10,9 4 2 9 5 WSW 1010,5 16 0 0,0
25.03.2017 07:00:00 7,1 5,9 6,3 10,4 10,9 6 3 9 5 NNW 1011,1 14 0 0,0
25.03.2017 06:00:00 7,4 6,0 7,1 10,4 10,9 5 3 19 10 NE 1012,4 20 0 0,0
25.03.2017 05:00:00 7,6 6,4 7,5 10,4 10,9 3 2 7 4 NNW 1013,4 33 0 0,0
25.03.2017 04:00:00 7,6 6,2 7,4 10,4 10,9 5 3 8 5 NNE 1014,5 53 0 0,0
25.03.2017 03:00:00 7,6 6,4 7,3 10,4 11,0 4 2 5 3 NNE 1015,9 42 0 0,0
25.03.2017 02:00:00 7,5 6,1 7,1 10,4 10,9 0 0 6 3 N 1016,4 52 0 0,0
25.03.2017 01:00:00 7,6 6,4 7,1 10,4 10,9 3 2 9 5 SSW 1016,8 8 0 0,2
25.03.2017 00:00:00 7,6 6,2 7,1 10,4 10,9 4 2 8 4 SW 1017,0 36 0 0,2
24.03.2017 23:00:00 7,7 6,2 6,9 10,4 10,9 5 3 9 5 W 1017,4 20 0 0,8
24.03.2017 22:00:00 8,0 5,6 6,8 10,4 11,0 5 3 9 5 SW 1017,9 42 0 0,2
24.03.2017 21:00:00 8,1 5,2 7,0 10,4 11,0 6 4 21 12 ESE 1018,3 60 0 0,0
24.03.2017 20:00:00 9,0 5,7 7,7 10,4 11,0 16 8 34 18 E 1018,0 20 0 0,2
24.03.2017 19:00:00 10,2 5,8 9,1 10,3 10,9 22 12 30 16 ESE 1017,1 48 0 0,0
24.03.2017 18:00:00 12,6 6,6 13,4 10,3 10,9 9 5 16 8 ENE 1016,7 60 0 0,0
24.03.2017 17:00:00 12,8 6,4 14,9 10,3 11,0 11 6 19 10 NE 1016,9 60 0 0,0
24.03.2017 16:00:00 12,9 5,8 17,0 10,2 10,9 8 4 24 13 E 1016,9 60 0 0,0
24.03.2017 15:00:00 12,8 5,9 18,3 10,2 10,9 4 2 13 7 E 1016,9 60 0 0,0
24.03.2017 14:00:00 11,8 5,9 19,2 10,2 11,0 4 2 9 5 NNW 1017,0 60 1 0,0
24.03.2017 13:00:00 11,0 5,5 17,9 10,2 10,9 4 2 11 6 ENE 1017,3 54 28 0,0
24.03.2017 12:00:00 9,2 4,6 14,0 10,3 11,0 6 4 16 9 E 1017,2 56 41 0,0
24.03.2017 11:00:00 8,2 4,0 9,4 10,3 10,9 7 4 13 7 ESE 1017,1 60 56 0,0
24.03.2017 10:00:00 5,4 3,6 0,5 10,4 11,0 4 2 8 5 NNW 1016,3 46 52 0,0
24.03.2017 09:00:00 2,0 1,3 -1,7 10,5 10,9 0 0 6 3 N 1016,2 20 6 0,0
24.03.2017 08:00:00 1,0 0,1 -1,8 10,5 10,9 2 1 6 3 NNW 1015,7 43 0 0,0
24.03.2017 07:00:00 0,7 0,0 -3,9 10,6 11,0 0 0 4 2 N 1015,2 54 0 0,0
24.03.2017 06:00:00 0,9 0,0 -4,1 10,7 10,9 0 0 4 2 N 1015,0 48 0 0,0
24.03.2017 05:00:00 0,9 -0,1 -4,0 10,7 11,0 3 1 5 3 SE 1014,9 59 0 0,0
24.03.2017 04:00:00 2,6 1,4 -2,8 10,8 11,0 0 0 12 6 N 1014,8 20 0 0,0
24.03.2017 03:00:00 3,9 2,3 -1,8 10,8 10,9 0 0 5 3 N 1014,9 60 0 0,0
24.03.2017 02:00:00 4,5 3,0 -1,2 10,9 10,9 2 1 10 5 ENE 1014,9 56 0 0,0
24.03.2017 01:00:00 4,7 2,9 -0,1 10,9 10,9 7 4 11 6 E 1014,5 53 0 0,0
24.03.2017 00:00:00 5,6 3,8 2,4 10,9 11,0 8 5 14 8 E 1014,5 59 0 0,0
23.03.2017 23:00:00 7,1 4,2 2,8 10,9 11,0 12 6 19 10 ESE 1014,2 60 0 0,0
23.03.2017 22:00:00 6,8 3,4 1,6 10,9 11,0 9 5 14 8 ESE 1013,2 60 0 0,0
23.03.2017 21:00:00 8,1 3,2 1,8 10,8 10,9 7 4 13 7 E 1012,0 60 1 0,0
23.03.2017 20:00:00 9,8 2,4 6,9 10,8 11,0 11 6 16 8 ESE 1011,2 60 44 0,0
23.03.2017 19:00:00 12,2 0,3 11,0 10,7 10,9 5 3 12 6 ESE 1010,4 60 35 0,0
23.03.2017 18:00:00 12,1 0,8 16,5 10,6 10,9 9 5 19 11 SSE 1010,0 60 53 0,0
23.03.2017 17:00:00 13,4 2,6 20,5 10,5 10,9 14 8 20 11 SE 1009,8 45 47 0,0
23.03.2017 16:00:00 13,5 1,5 20,8 10,4 10,9 4 2 16 9 WSW 1009,6 20 49 0,0
23.03.2017 15:00:00 13,0 4,2 18,1 10,5 11,0 8 4 21 11 SW 1010,0 52 47 0,0
23.03.2017 14:00:00 10,5 3,5 18,9 10,4 10,9 6 4 18 10 WSW 1010,4 60 42 0,0
23.03.2017 13:00:00 9,8 4,2 12,8 10,4 10,9 7 4 16 9 WSW 1010,5 20 27 0,0
23.03.2017 12:00:00 8,0 4,6 10,1 10,5 10,9 8 4 13 7 SW 1010,5 60 0 0,0
23.03.2017 11:00:00 6,8 4,6 7,1 10,5 10,9 4 2 9 5 WSW 1010,4 60 0 0,0
23.03.2017 10:00:00 6,0 4,5 5,8 10,5 10,9 3 2 13 7 WSW 1010,0 59 0 0,6
23.03.2017 09:00:00 5,9 4,9 5,4 10,6 10,9 7 4 10 5 SSE 1009,4 12 0 0,6
23.03.2017 08:00:00 5,7 4,8 5,4 10,6 10,9 6 4 12 7 SSE 1009,0 8 0 1,2
23.03.2017 07:00:00 5,7 4,7 5,1 10,7 10,9 5 3 7 4 E 1008,4 20 0 0,8
23.03.2017 06:00:00 5,6 4,2 4,9 10,7 10,9 3 1 7 4 SSE 1008,5 15 0 1,2
23.03.2017 05:00:00 5,5 4,1 4,7 10,7 10,9 0 0 5 3 N 1008,5 56 0 0,0
23.03.2017 04:00:00 5,6 4,4 4,9 10,8 11,0 3 2 8 4 SE 1009,0 20 0 0,4
23.03.2017 03:00:00 5,7 4,3 5,2 10,8 10,9 0 0 11 6 N 1009,1 8 0 1,2
23.03.2017 02:00:00 5,8 4,4 5,3 10,9 11,0 4 2 8 5 SW 1009,4 36 0 1,4
23.03.2017 01:00:00 6,1 4,9 5,6 10,9 10,9 3 2 14 8 SW 1009,9 7 0 3,0
23.03.2017 00:00:00 6,2 5,2 5,8 10,9 10,9 10 5 18 10 WNW 1009,4 18 0 3,3
22.03.2017 23:00:00 6,5 5,3 6,3 10,9 10,9 15 8 30 16 WNW 1009,7 7 0 2,6
22.03.2017 22:00:00 6,6 4,8 6,4 10,9 10,9 29 16 55 30 NW 1009,4 4,2 0 2,6
22.03.2017 21:00:00 11,3 5,4 6,8 10,9 11,0 11 6 21 11 NNW 1006,8 20 0 0,0
22.03.2017 20:00:00 12,1 3,6 7,6 10,8 10,9 4 2 9 5 NNE 1007,1 60 12 0,0
22.03.2017 19:00:00 13,7 3,7 15,4 10,7 10,9 3 1 10 5 ENE 1007,3 18 1 0,0
22.03.2017 18:00:00 13,9 3,9 16,2 10,7 10,9 10 5 35 19 NW 1007,9 60 11 0,0
22.03.2017 17:00:00 15,3 2,4 19,6 10,7 10,9 11 6 28 15 W 1008,6 60 29 0,0
22.03.2017 16:00:00 15,1 4,5 19,2 10,6 10,9 15 8 26 14 WSW 1009,2 60 43 0,0
22.03.2017 15:00:00 13,9 4,5 17,5 10,6 10,9 17 9 35 19 WSW 1010,1 60 15 0,0
22.03.2017 14:00:00 13,8 6,6 16,8 10,6 10,9 11 6 29 16 S 1010,3 60 45 0,0
22.03.2017 13:00:00 11,1 7,2 11,2 10,7 10,9 15 8 23 12 ESE 1011,1 38 8 0,0
22.03.2017 12:00:00 9,0 6,8 10,7 10,7 10,9 18 10 27 15 ESE 1011,5 27 1 0,0
22.03.2017 11:00:00 7,5 6,1 7,6 10,7 10,9 16 9 24 13 ESE 1011,9 16 0 0,0
22.03.2017 10:00:00 6,4 5,5 6,9 10,8 10,9 16 9 23 12 ESE 1012,4 11 0 0,0
22.03.2017 09:00:00 6,0 5,6 5,6 10,8 10,9 17 9 27 15 SE 1012,7 9 0 0,0
22.03.2017 08:00:00 5,5 5,1 5,1 10,9 10,9 13 7 25 14 ESE 1013,1 1,5 0 0,0
22.03.2017 07:00:00 5,1 4,7 4,8 10,9 10,9 16 9 24 13 ESE 1013,2 0,2 0 0,0
22.03.2017 06:00:00 5,8 5,2 4,5 11,0 10,9 13 7 17 9 ESE 1014,3 8 0 0,0
22.03.2017 05:00:00 5,9 5,2 4,6 11,0 10,9 6 3 8 4 ESE 1015,3 13 0 0,0
22.03.2017 04:00:00 6,2 5,6 2,8 11,0 10,9 5 3 8 4 SE 1016,0 31 0 0,0
22.03.2017 03:00:00 4,3 3,7 -0,4 11,1 10,9 5 3 7 4 SSE 1016,8 1,5 0 0,0
22.03.2017 02:00:00 5,7 5,0 0,7 11,1 10,9 2 1 5 3 WSW 1017,2 7 0 0,0
22.03.2017 01:00:00 5,0 3,8 -0,2 11,2 10,9 2 1 4 2 SSE 1017,8 0,6 0 0,0
22.03.2017 00:00:00 7,1 6,0 3,2 11,2 10,9 0 0 8 4 N 1018,1 8 0 0,0
21.03.2017 23:00:00 7,4 5,9 4,4 11,2 10,9 5 3 9 5 WNW 1018,5 34 0 0,0
21.03.2017 22:00:00 8,5 6,6 7,2 11,2 10,9 5 3 11 6 WSW 1018,2 42 0 0,0
21.03.2017 21:00:00 8,7 6,8 8,0 11,2 10,9 6 4 13 7 W 1018,2 44 0 0,2
21.03.2017 20:00:00 8,7 6,8 8,4 11,2 10,9 10 5 24 13 NW 1018,2 10 0 0,0
21.03.2017 19:00:00 8,7 6,5 8,4 11,2 10,9 16 9 32 17 NW 1017,5 57 0 0,4
21.03.2017 18:00:00 9,0 7,0 9,5 11,2 10,9 21 11 37 20 NW 1016,9 15 0 0,4
21.03.2017 17:00:00 9,2 8,0 9,9 11,2 10,9 24 13 34 18 NW 1016,5 4,3 0 0,4
21.03.2017 16:00:00 9,8 7,9 10,4 11,1 10,8 21 11 34 19 NW 1016,0 10 0 0,0
21.03.2017 15:00:00 12,4 9,6 15,1 11,1 10,9 17 9 25 14 WNW 1015,6 8 0 0,0
21.03.2017 14:00:00 14,2 7,3 15,4 11,1 10,9 14 8 23 12 WSW 1015,7 51 0 0,0
21.03.2017 13:00:00 13,2 7,6 15,4 11,1 10,8 13 7 24 13 SW 1016,0 37 11 0,0
21.03.2017 12:00:00 13,0 7,9 14,9 11,1 10,9 12 7 19 10 WSW 1016,3 19 8 0,0
21.03.2017 11:00:00 11,8 7,7 13,4 11,1 10,8 5 3 17 9 W 1016,4 20 0 0,0
21.03.2017 10:00:00 10,6 7,7 10,0 11,2 10,9 6 3 9 5 W 1016,4 16 0 0,0
21.03.2017 09:00:00 9,7 7,0 8,4 11,2 10,8 0 0 13 7 N 1016,4 28 0 0,0
21.03.2017 08:00:00 9,4 7,0 6,3 11,2 10,8 6 3 12 7 SW 1016,4 31 0 0,0
21.03.2017 07:00:00 8,9 6,7 6,4 11,3 10,8 4 2 10 6 W 1016,5 32 0 0,0
21.03.2017 06:00:00 9,2 7,1 8,0 11,3 10,8 3 2 6 3 WSW 1016,7 38 0 0,0
21.03.2017 05:00:00 9,1 7,2 7,4 11,3 10,9 3 1 8 4 WSW 1017,0 38 0 0,0
21.03.2017 04:00:00 9,3 7,2 8,1 11,3 10,8 4 2 13 7 W 1017,8 43 0 0,0
21.03.2017 03:00:00 9,4 7,3 7,7 11,4 10,8 6 3 11 6 W 1018,2 47 0 0,0
21.03.2017 02:00:00 9,4 7,0 8,6 11,4 10,8 6 3 14 8 NW 1018,2 59 0 0,0
21.03.2017 01:00:00 9,5 6,9 9,1 11,4 10,8 14 8 23 12 WNW 1018,8 59 0 0,0
21.03.2017 00:00:00 10,1 7,2 9,6 11,4 10,8 13 7 23 12 WNW 1018,9 60 0 0,0
20.03.2017 23:00:00 10,5 7,7 10,1 11,4 10,8 14 8 22 12 W 1018,8 55 0 0,0
20.03.2017 22:00:00 11,4 7,1 10,7 11,4 10,8 11 6 27 14 W 1018,5 58 0 0,0
20.03.2017 21:00:00 11,8 7,1 11,0 11,4 10,8 9 5 19 11 W 1017,8 60 0 0,0
20.03.2017 20:00:00 12,1 7,4 11,5 11,3 10,8 16 8 23 12 WNW 1017,4 60 0 0,0
20.03.2017 19:00:00 12,9 8,0 13,0 11,3 10,8 14 8 20 11 NW 1016,9 60 0 0,0
20.03.2017 18:00:00 13,6 8,0 15,5 11,3 10,8 11 6 18 10 NNW 1016,7 60 0 0,0
20.03.2017 17:00:00 14,1 7,8 18,3 11,2 10,8 8 5 17 9 NNW 1016,6 60 0 0,0
20.03.2017 16:00:00 14,2 7,5 18,7 11,1 10,8 12 6 18 10 WNW 1016,6 19 0 0,0
20.03.2017 15:00:00 14,6 7,6 - - - 5 3 15 8 WNW 1016,8 55 - 0,0
20.03.2017 14:00:00 13,7 7,7 20,4 11,1 10,8 5 3 12 7 N 1017,3 57 1 0,0
20.03.2017 13:00:00 13,0 7,7 18,6 11,0 10,8 5 3 11 6 NW 1017,7 52 1 0,0
20.03.2017 12:00:00 11,9 7,2 16,5 11,0 10,8 5 3 9 5 NW 1017,9 18 1 0,0
20.03.2017 11:00:00 11,9 7,4 14,5 11,0 10,8 3 2 7 4 NW 1017,8 42 18 0,0
20.03.2017 10:00:00 10,3 7,7 10,3 11,0 10,8 3 2 6 4 WNW 1018,1 38 0 0,0
20.03.2017 09:00:00 - - - - - - - - - - - - - -

tt = Température de l'air
td = dewpoint
tt 5cm = Température de l'air 5cm
tt -20cm = Température de l'air -20cm
tt -100cm = Température de l'air -100cm
ff = Vitesse du vent
fx = gusts
dd = Direction du vent
ppp = reduced air pressure
vv = visibility
sd = Ensoleillement
rr = Quantités de précipitations

stations d'obs. à proximité